Location: Bayview
(38.0070°N, 122.3188°W)
Time: 12:03:04
(UTC+00:00)

Cosmos 2219 Rocket - Pass Details

Date: 29 June 2022
Orbit: 826 x 848 km, 71.0° (Epoch: 14 August)

Event Time Altitude Azimuth Distance (km) Brightness Sun altitude
Rises 12:10:10 0° 312° (NW) 3,407 5.2 -7.3°
Reaches altitude 10° 12:14:51 10° 277° (W) 2,469 4.2 -6.5°
Maximum altitude 12:16:09 11° 264° (W) 2,412 4.1 -6.3°
Drops below altitude 10° 12:17:26 10° 251° (WSW) 2,466 4.0 -6.1°
Enters shadow 12:19:23 - 233° (SW) 2,738 4.1 -5.8°
